Binghamton, NY

2:48 AM EDT on October 22, 2017 (GMT -0400)
Binghamton Regional-Link

Weather History for KBGM - March, 2014

Change the Weather History Date:

Sunday, March 9, 2014

  Actual Average Record
Temperature  
Mean Temperature 26 °F 30 °F  
Max Temperature 31 °F 38 °F 72 °F (2016)
Min Temperature 21 °F 22 °F 0 °F (1996)
Degree Days  
Heating Degree Days 39 35  
Month to date heating degree days 411 324  
Since 1 July heating degree days 5882 5523  
Cooling Degree Days 0 0  
Month to date cooling degree days 0 0  
Year to date cooling degree days 0 0  
Moisture  
Dew Point 15 °F    
Average Humidity 62    
Maximum Humidity 81    
Minimum Humidity 43    
Precipitation  
Precipitation 0.01 in 0.09 in 0.69 in (2009)
Month to date precipitation 0.04 0.78  
Year to date precipitation 5.73 5.54  
Snow  
Snow 0.10 in 0.70 in 5.60 in (2001)
Month to date snowfall 0.4 5.6  
Since 1 July snowfall 82.9 69.5  
Snow Depth 4.00 in    
Sea Level Pressure  
Sea Level Pressure 29.97 in    
Wind  
Wind Speed 8 mph (NW)    
Max Wind Speed 18 mph    
Max Gust Speed 26 mph    
Visibility 9 miles    
Events Snow    
T = Trace of Precipitation, MM = Missing Value Source: NWS Daily Summary

Daily Weather History Graph

Daily Weather History Graph

Search for Another Location

Airport or City:

Trip Planner

Search our weather history database for the weather conditions in past years. The results will help you decide how hot, cold, wet, or windy it might be!

Date:

Astronomy

Mar. 09, 2014 Rise Set
Actual Time 7:26 AM EDT 7:03 PM EDT
Civil Twilight 6:58 AM EDT 7:31 PM EDT
Nautical Twilight 6:25 AM EDT 8:03 PM EDT
Astronomical Twilight 5:53 AM EDT 8:36 PM EDT
Moon 12:49 PM EDT (3/9) 3:54 AM EDT (3/9)
Length of Visible Light 12h 33m
Length of Day
11h 37m
First Quarter, 61% of the Moon is Illuminated
Mar 9
First Quarter
Mar 16
Full
Mar 23
Last Quarter
Mar 30
New
Apr 7
First Quarter

Hourly Weather History & Observations

Time (EDT) Temp. Windchill Dew Point Humidity Pressure Visibility Wind Dir Wind Speed Gust Speed Precip Events Conditions
12:24 AM 26.6 °F 16.8 °F 24.8 °F 93% 29.90 in 6.0 mi NNW 10.4 mph - 0.00 in   Overcast
12:35 AM 26.6 °F 19.1 °F 23.0 °F 86% 29.90 in 8.0 mi NNW 6.9 mph - 0.00 in   Overcast
12:53 AM 27.0 °F 17.3 °F 21.9 °F 81% 29.94 in 10.0 mi NNW 10.4 mph - 0.00 in   Overcast
1:53 AM 27.0 °F 17.3 °F 19.9 °F 75% 29.94 in 10.0 mi NNW 10.4 mph - 0.00 in   Overcast
3:02 AM 26.6 °F 17.5 °F 21.2 °F 80% 29.90 in 10.0 mi NNW 9.2 mph - N/A   Overcast
3:53 AM 26.1 °F 21.9 °F 21.9 °F 84% 29.94 in 3.0 mi NNW 3.5 mph - 0.00 in Snow Light Snow
4:03 AM 26.6 °F 21.2 °F 21.2 °F 80% 29.90 in 3.0 mi NW 4.6 mph - 0.01 in Snow Light Snow
4:11 AM 26.6 °F 21.2 °F 21.2 °F 80% 29.90 in 2.0 mi NW 4.6 mph - 0.01 in Snow Light Snow
4:23 AM 26.6 °F 18.2 °F 21.2 °F 80% 29.90 in 4.0 mi NW 8.1 mph - 0.01 in Snow Light Snow
4:53 AM 26.1 °F 15.6 °F 21.9 °F 84% 29.95 in 2.5 mi NNW 11.5 mph 18.4 mph 0.01 in Snow Light Snow
5:25 AM 24.8 °F 14.6 °F 19.4 °F 80% 29.92 in 4.0 mi NW 10.4 mph 21.9 mph 0.00 in Snow Light Snow
5:53 AM 25.0 °F 16.3 °F 18.0 °F 75% 29.98 in 10.0 mi NW 8.1 mph - 0.00 in   Overcast
6:53 AM 24.1 °F 14.4 °F 16.0 °F 71% 30.00 in 8.0 mi NW 9.2 mph - N/A   Overcast
7:08 AM 23.0 °F 10.6 °F 15.8 °F 74% 29.94 in 7.0 mi WNW 13.8 mph 21.9 mph N/A   Overcast
7:53 AM 21.0 °F 11.4 °F 12.9 °F 71% 30.02 in 10.0 mi NW 8.1 mph - N/A   Clear
8:53 AM 21.0 °F 10.6 °F 14.0 °F 74% 30.05 in 10.0 mi NW 9.2 mph 16.1 mph N/A   Clear
9:48 AM 21.2 °F 8.9 °F 12.2 °F 68% 30.01 in 10.0 mi NNW 12.7 mph - N/A   Mostly Cloudy
9:53 AM 21.9 °F 9.8 °F 12.9 °F 68% 30.07 in 10.0 mi NW 12.7 mph - N/A   Mostly Cloudy
10:53 AM 24.1 °F 11.5 °F 12.9 °F 62% 30.07 in 10.0 mi WNW 15.0 mph 23.0 mph 0.00 in   Overcast
11:53 AM 25.0 °F 13.6 °F 14.0 °F 63% 30.07 in 9.0 mi NW 12.7 mph 21.9 mph 0.00 in   Overcast
12:24 PM 24.8 °F 15.3 °F 12.2 °F 59% 30.01 in 10.0 mi WNW 9.2 mph 19.6 mph N/A   Scattered Clouds
12:53 PM 26.1 °F 15.0 °F 12.0 °F 55% 30.07 in 10.0 mi WNW 12.7 mph 24.2 mph N/A   Clear
1:53 PM 27.0 °F 18.7 °F 12.0 °F 53% 30.05 in 10.0 mi NW 8.1 mph 18.4 mph N/A   Clear
2:53 PM 28.0 °F 20.8 °F 12.0 °F 51% 30.01 in 10.0 mi NW 6.9 mph - N/A   Clear
3:53 PM 30.0 °F 23.2 °F 12.0 °F 47% 29.99 in 10.0 mi NW 6.9 mph - N/A   Clear
4:53 PM 30.0 °F 22.4 °F 10.0 °F 43% 29.99 in 10.0 mi WNW 8.1 mph - N/A   Clear
5:53 PM 30.9 °F 26.2 °F 10.9 °F 43% 29.97 in 10.0 mi NW 4.6 mph - N/A   Clear
6:53 PM 28.9 °F 25.2 °F 10.0 °F 45% 29.97 in 10.0 mi NNW 3.5 mph - N/A   Clear
7:53 PM 28.9 °F - 10.9 °F 47% 29.97 in 10.0 mi Calm Calm - N/A   Mostly Cloudy
8:53 PM 28.0 °F - 12.0 °F 51% 29.95 in 10.0 mi Calm Calm - N/A   Overcast
9:53 PM 28.0 °F 21.7 °F 10.0 °F 47% 29.93 in 10.0 mi SW 5.8 mph - N/A   Clear
10:53 PM 28.0 °F 20.0 °F 10.9 °F 49% 29.89 in 10.0 mi SW 8.1 mph - N/A   Partly Cloudy
11:53 PM 28.9 °F 18.6 °F 12.0 °F 49% 29.86 in 10.0 mi SW 12.7 mph - N/A   Overcast
12:53 AM 28.9 °F 19.2 °F 14.0 °F 54% 29.81 in 10.0 mi SW 11.5 mph - N/A   Overcast